Location: Unspecified
(44.4377°N, 88.0525°W)
Time: 15:35:37
(UTC-05:00)

Okean 3 - Visible Passes

Search period start: 30 March 2017 00:00
Search period end: 09 April 2017 00:00
Orbit: 577 x 603 km, 82.5° (Epoch: 29 March)

Date Brightness Start Highest point End Pass type
(mag) Time Alt. Az. Time Alt. Az. Time Alt. Az.
30 Mar 5.8 03:34:08 17° N 03:34:08 17° N 03:35:17 10° N visible
31 Mar 6.8 02:05:52 10° NE 02:05:52 10° NE 02:05:52 10° NE visible
31 Mar 5.9 03:42:25 15° NNW 03:42:25 15° NNW 03:43:21 10° NNW visible
01 Apr 6.6 02:14:08 12° NNE 02:14:08 12° NNE 02:14:31 10° NNE visible
01 Apr 6.0 03:50:41 13° NNW 03:50:41 13° NNW 03:51:16 10° NNW visible
02 Apr 6.4 02:22:23 14° NNE 02:22:23 14° NNE 02:23:00 10° NNE visible
03 Apr 6.3 02:30:38 15° NNE 02:30:38 15° NNE 02:31:24 10° N visible
04 Apr 6.2 02:38:51 15° N 02:38:51 15° N 02:39:41 10° N visible
05 Apr 6.1 02:47:05 15° N 02:47:05 15° N 02:47:52 10° N visible
06 Apr 6.1 02:55:17 13° NNW 02:55:17 13° NNW 02:55:56 10° NNW visible
07 Apr 6.7 01:26:57 11° NNE 01:26:57 11° NNE 01:27:02 10° NNE visible
07 Apr 6.2 03:03:29 12° NNW 03:03:29 12° NNW 03:03:50 10° NNW visible
08 Apr 6.5 01:35:08 12° NNE 01:35:08 12° NNE 01:35:33 10° NNE visible
